TimeCST,TemperatureF,Dew PointF,Humidity,Sea Level PressureIn,VisibilityMPH,Wind Direction,Wind SpeedMPH,Gust SpeedMPH,PrecipitationIn,Events,Conditions,WindDirDegrees,DateUTC
12:15 AM,62.6,47.7,58,29.93,10.0,South,17.3,29.9,N/A,,Clear,180,2012-11-11 06:15:00
12:35 AM,62.2,47.7,59,29.93,10.0,South,20.7,26.5,N/A,,Clear,180,2012-11-11 06:35:00
12:55 AM,61.9,47.8,60,29.92,10.0,South,20.7,29.9,N/A,,Clear,180,2012-11-11 06:55:00
1:15 AM,61.7,48.0,61,29.93,10.0,South,20.7,27.6,N/A,,Clear,180,2012-11-11 07:15:00
1:35 AM,61.5,48.2,62,29.93,10.0,South,19.6,25.3,N/A,,Clear,180,2012-11-11 07:35:00
1:55 AM,61.2,48.4,63,29.93,10.0,South,18.4,25.3,N/A,,Clear,180,2012-11-11 07:55:00
2:15 AM,60.8,48.6,64,29.94,10.0,South,17.3,-,N/A,,Clear,180,2012-11-11 08:15:00
2:35 AM,60.8,49.1,65,29.94,10.0,South,16.1,-,N/A,,Clear,180,2012-11-11 08:35:00
2:55 AM,60.8,49.1,65,29.94,10.0,South,15.0,-,N/A,,Clear,170,2012-11-11 08:55:00
3:15 AM,60.3,49.3,67,29.94,10.0,South,13.8,19.6,N/A,,Clear,180,2012-11-11 09:15:00
3:35 AM,60.4,49.5,67,29.94,10.0,South,16.1,-,N/A,,Clear,170,2012-11-11 09:35:00
3:55 AM,60.3,50.0,69,29.94,10.0,South,12.7,20.7,N/A,,Clear,170,2012-11-11 09:55:00
4:15 AM,59.9,50.0,70,29.94,10.0,South,13.8,19.6,N/A,,Clear,170,2012-11-11 10:15:00
4:35 AM,60.1,50.2,70,29.94,10.0,South,16.1,21.9,N/A,,Clear,170,2012-11-11 10:35:00
4:55 AM,59.9,50.2,70,29.93,10.0,South,17.3,23.0,N/A,,Clear,170,2012-11-11 10:55:00
5:15 AM,59.0,50.0,72,29.92,10.0,SSE,16.1,24.2,N/A,,Clear,160,2012-11-11 11:15:00
5:35 AM,58.5,50.2,74,29.92,10.0,SSE,17.3,25.3,N/A,,Clear,160,2012-11-11 11:35:00
5:55 AM,58.1,50.2,75,29.92,10.0,South,16.1,20.7,N/A,,Clear,170,2012-11-11 11:55:00
6:15 AM,58.1,50.4,75,29.92,10.0,South,16.1,23.0,N/A,,Clear,170,2012-11-11 12:15:00
6:35 AM,58.1,50.4,75,29.92,10.0,SSE,16.1,21.9,N/A,,Scattered Clouds,160,2012-11-11 12:35:00
6:55 AM,57.7,50.4,76,29.92,10.0,SSE,15.0,24.2,N/A,,Scattered Clouds,150,2012-11-11 12:55:00
7:15 AM,57.2,50.0,77,29.92,10.0,SSE,16.1,21.9,N/A,,Mostly Cloudy,160,2012-11-11 13:15:00
7:35 AM,58.1,50.2,75,29.92,10.0,South,17.3,25.3,N/A,,Scattered Clouds,170,2012-11-11 13:35:00
8:15 AM,60.1,50.9,72,29.91,10.0,South,20.7,31.1,N/A,,Clear,170,2012-11-11 14:15:00
8:35 AM,61.2,51.4,70,29.90,10.0,South,21.9,29.9,N/A,,Clear,170,2012-11-11 14:35:00
8:55 AM,62.4,51.8,68,29.89,10.0,South,27.6,33.4,N/A,,Clear,170,2012-11-11 14:55:00
9:15 AM,62.6,52.2,69,29.89,10.0,South,27.6,38.0,N/A,,Clear,180,2012-11-11 15:15:00
9:35 AM,63.5,52.3,67,29.88,10.0,South,29.9,41.4,N/A,,Clear,180,2012-11-11 15:35:00
9:55 AM,64.0,52.9,67,29.87,10.0,South,33.4,41.4,N/A,,Clear,180,2012-11-11 15:55:00
10:15 AM,64.8,52.7,65,29.86,10.0,South,32.2,38.0,N/A,,Clear,170,2012-11-11 16:15:00
10:35 AM,67.1,53.2,61,29.85,10.0,South,33.4,42.6,N/A,,Clear,180,2012-11-11 16:35:00
10:55 AM,67.5,53.4,61,29.84,10.0,South,32.2,40.3,N/A,,Clear,180,2012-11-11 16:55:00
11:15 AM,67.1,53.6,62,29.83,10.0,South,28.8,39.1,N/A,,Clear,180,2012-11-11 17:15:00
11:35 AM,68.4,53.8,60,29.82,10.0,South,31.1,36.8,N/A,,Scattered Clouds,180,2012-11-11 17:35:00
11:55 AM,68.0,53.6,60,29.82,10.0,South,34.5,42.6,N/A,,Mostly Cloudy,180,2012-11-11 17:55:00
12:15 PM,67.3,53.1,60,29.79,10.0,South,27.6,44.9,N/A,,Scattered Clouds,170,2012-11-11 18:15:00
12:35 PM,68.4,53.4,59,29.79,10.0,South,26.5,40.3,N/A,,Clear,180,2012-11-11 18:35:00
12:55 PM,68.4,52.9,58,29.78,10.0,South,31.1,43.7,N/A,,Scattered Clouds,180,2012-11-11 18:55:00
1:15 PM,68.0,52.9,58,29.78,10.0,South,32.2,39.1,N/A,,Overcast,170,2012-11-11 19:15:00
1:35 PM,68.2,53.4,59,29.78,10.0,South,32.2,39.1,N/A,,Overcast,180,2012-11-11 19:35:00
1:55 PM,68.4,53.8,60,29.77,10.0,South,28.8,38.0,N/A,,Overcast,180,2012-11-11 19:55:00
2:15 PM,68.0,54.3,62,29.79,10.0,South,24.2,33.4,N/A,,Overcast,190,2012-11-11 20:15:00
2:35 PM,67.5,54.5,63,29.77,10.0,South,28.8,39.1,N/A,,Overcast,180,2012-11-11 20:35:00
2:55 PM,67.1,54.7,64,29.76,10.0,South,28.8,40.3,N/A,,Overcast,180,2012-11-11 20:55:00
3:15 PM,63.7,56.5,77,29.77,3.0,South,21.9,32.2,0.01,Rain,Light Rain,180,2012-11-11 21:15:00
3:35 PM,62.6,57.2,82,29.78,3.0,South,23.0,28.8,0.04,Rain,Rain,180,2012-11-11 21:35:00
3:55 PM,56.5,53.1,88,29.85,5.0,West,10.4,27.6,0.16,Rain,Light Rain,280,2012-11-11 21:55:00
4:15 PM,54.5,52.2,92,29.86,7.0,WNW,9.2,16.1,0.01,Rain,Light Rain,290,2012-11-11 22:15:00
4:35 PM,54.0,51.8,92,29.87,4.0,WNW,8.1,-,0.06,Rain,Rain,290,2012-11-11 22:35:00
4:55 PM,53.6,51.4,92,29.88,10.0,WNW,4.6,-,0.09,Rain,Light Rain,290,2012-11-11 22:55:00
5:15 PM,53.6,51.4,92,29.91,5.0,West,4.6,-,0.03,Rain,Heavy Rain,270,2012-11-11 23:15:00
5:35 PM,53.6,51.4,92,29.91,7.0,West,4.6,-,0.08,Rain,Light Rain,260,2012-11-11 23:35:00
5:55 PM,53.2,51.6,94,29.90,5.0,Calm,Calm,-,0.13,Rain,Rain,0,2012-11-11 23:55:00
6:15 PM,53.1,51.4,94,29.90,7.0,Calm,Calm,-,0.01,Rain,Rain,0,2012-11-12 00:15:00
6:35 PM,52.9,51.3,94,29.90,5.0,Calm,Calm,-,0.06,Rain,Rain,0,2012-11-12 00:35:00
6:55 PM,52.7,51.1,94,29.89,7.0,Calm,Calm,-,0.09,Rain,Rain,0,2012-11-12 00:55:00
7:15 PM,52.7,51.4,95,29.91,7.0,Calm,Calm,-,0.03,Rain,Rain,0,2012-11-12 01:15:00
7:35 PM,52.9,51.8,96,29.93,5.0,SW,6.9,-,0.08,Rain,Rain,220,2012-11-12 01:35:00
7:55 PM,52.3,51.1,95,29.93,7.0,Calm,Calm,-,0.10,Rain,Rain,0,2012-11-12 01:55:00
8:15 PM,52.0,50.9,96,29.94,4.0,WSW,4.6,-,0.04,Rain,Rain,250,2012-11-12 02:15:00
8:35 PM,48.9,46.8,92,29.95,7.0,WNW,11.5,20.7,0.08,Rain,Rain,290,2012-11-12 02:35:00
8:55 PM,44.4,42.4,93,29.98,7.0,West,9.2,19.6,0.12,Rain,Rain,280,2012-11-12 02:55:00
9:15 PM,43.0,41.2,93,29.99,7.0,West,8.1,16.1,0.03,Rain,Rain,280,2012-11-12 03:15:00
9:35 PM,42.3,40.5,93,29.99,7.0,WNW,8.1,-,0.07,Rain,Rain,290,2012-11-12 03:35:00
9:55 PM,41.5,40.1,95,30.00,7.0,WNW,6.9,-,0.14,Rain,Rain,290,2012-11-12 03:55:00
10:15 PM,40.5,39.2,95,30.01,5.0,WNW,13.8,21.9,0.05,Rain,Rain,300,2012-11-12 04:15:00
10:35 PM,39.7,38.3,95,30.00,10.0,WNW,6.9,20.7,0.09,Rain,Light Rain,290,2012-11-12 04:35:00
10:55 PM,38.3,36.7,94,30.02,10.0,WNW,11.5,20.7,0.09,Rain,Light Rain,300,2012-11-12 04:55:00
11:15 PM,37.8,36.0,93,30.02,10.0,WNW,8.1,16.1,N/A,,Overcast,290,2012-11-12 05:15:00
11:35 PM,37.6,35.4,92,30.04,10.0,WNW,11.5,19.6,N/A,,Overcast,290,2012-11-12 05:35:00
11:55 PM,36.9,34.9,93,30.04,10.0,WNW,9.2,16.1,N/A,,Light Drizzle,290,2012-11-12 05:55:00